Solander Island, British Columbia

3:36 AM PDT on October 22, 2017 (GMT -0700)
Solander Island

Weather History for CWRU - January, 2014

Change the Weather History Date:

Tuesday, January 14, 2014

  Actual Average Record
Temperature  
Mean Temperature 45 °F -  
Max Temperature 47 °F - - ()
Min Temperature 43 °F - - ()
Degree Days  
Heating Degree Days 20    
Moisture  
Dew Point -    
Average Humidity    
Maximum Humidity    
Minimum Humidity    
Precipitation  
Precipitation 0.04 in - - ()
Sea Level Pressure  
Sea Level Pressure 30.52 in    
Wind  
Wind Speed 21 mph ()    
Max Wind Speed 30 mph    
Max Gust Speed 36 mph    
T = Trace of Precipitation, MM = Missing Value Source: Averaged Metar Reports

Daily Weather History Graph

Daily Weather History Graph

Search for Another Location

Airport or City:

Trip Planner

Search our weather history database for the weather conditions in past years. The results will help you decide how hot, cold, wet, or windy it might be!

Date:

Astronomy

Jan. 14, 2014 Rise Set
Actual Time 8:25 AM PST 4:56 PM PST
Civil Twilight 7:48 AM PST 5:33 PM PST
Nautical Twilight 7:07 AM PST 6:14 PM PST
Astronomical Twilight 6:28 AM PST 6:53 PM PST
Moon 4:11 PM PST (1/14) 7:01 AM PST (1/14)
Length of Visible Light 9h 45m
Length of Day
8h 31m
Waxing Gibbous, 98% of the Moon is Illuminated
Jan 14
Waxing Gibbous
Jan 15
Full
Jan 23
Last Quarter
Jan 30
New
Feb 6
First Quarter

Hourly Weather History & Observations

Time (PST) Temp. Windchill Dew Point Humidity Pressure Visibility Wind Dir Wind Speed Gust Speed Precip Events Conditions
12:00 AM 45.7 °F 38.3 °F - N/A% 30.51 in - SE 18.4 mph - N/A   Unknown
1:00 AM 45.9 °F 38.3 °F - N/A% 30.52 in - ESE 19.6 mph - N/A   Unknown
2:00 AM 45.9 °F 37.8 °F - N/A% 30.53 in - ESE 21.9 mph - N/A   Unknown
3:00 AM 45.7 °F 37.8 °F - N/A% 30.54 in - ESE 20.7 mph - 0.01 in   Unknown
4:00 AM 46 °F - - % 30.54 in - ESE 23.0 mph - -  
4:00 AM 45.9 °F 37.6 °F - N/A% 30.54 in - ESE 23.0 mph - N/A   Unknown
5:00 AM 46.0 °F 37.6 °F - N/A% 30.53 in - ESE 24.2 mph 31.1 mph N/A   Unknown
6:00 AM 45.9 °F 37.0 °F - N/A% 30.51 in - ESE 26.5 mph - N/A   Unknown
7:00 AM 45.9 °F 36.6 °F - N/A% 30.50 in - ESE 28.8 mph 35.7 mph N/A   Unknown
8:00 AM 45.5 °F 36.5 °F - N/A% 30.52 in - ESE 26.5 mph 32.2 mph N/A   Unknown
9:00 AM 45.1 °F 35.6 °F - N/A% 30.52 in - ESE 28.8 mph - N/A   Unknown
10:00 AM 45 °F - - % 30.54 in - ESE 29.9 mph - -  
10:00 AM 45.0 °F 35.2 °F - N/A% 30.54 in - ESE 29.9 mph - N/A   Unknown
11:00 AM 45.0 °F 35.2 °F - N/A% 30.55 in - ESE 29.9 mph - N/A   Unknown
12:00 PM 45.0 °F 35.6 °F - N/A% 30.54 in - ESE 27.6 mph - N/A   Unknown
1:00 PM 45.0 °F 35.6 °F - N/A% 30.53 in - ESE 27.6 mph - 0.01 in   Unknown
2:00 PM 43.7 °F 33.9 °F - N/A% 30.52 in - ESE 27.6 mph 33.4 mph N/A   Unknown
3:00 PM 45.7 °F 36.7 °F - N/A% 30.53 in - ESE 26.5 mph 32.2 mph N/A   Unknown
4:00 PM 46 °F - - % 30.53 in - ESE 25.3 mph - -  
4:00 PM 45.7 °F 36.9 °F - N/A% 30.53 in - ESE 25.3 mph 32.2 mph N/A   Unknown
5:00 PM 46.2 °F 38.1 °F - N/A% 30.51 in - ESE 23.0 mph 29.9 mph N/A   Unknown
6:00 PM 46.4 °F 38.1 °F - N/A% 30.50 in - ESE 24.2 mph 29.9 mph N/A   Unknown
7:00 PM 46.6 °F - - N/A% 30.50 in - South 24.2 mph - N/A   Unknown
8:00 PM 46.8 °F - - N/A% 30.49 in - SSE 21.9 mph - N/A   Unknown
9:00 PM 45.5 °F 38.9 °F - N/A% 30.49 in - SE 15.0 mph 21.9 mph 0.04 in   Unknown
10:00 PM 46 °F - - % 30.48 in - ESE 23.0 mph - -  
10:00 PM 45.5 °F 37.1 °F - N/A% 30.48 in - ESE 23.0 mph 28.8 mph 0.01 in   Unknown
11:00 PM 45.7 °F 38.6 °F - N/A% 30.51 in - SE 17.3 mph 25.3 mph 0.10 in   Unknown